Volver al catálogo

CZ-6A DEB

ActivoSSO
NORAD 54446·DEBRIS·🇨🇳 China

Lanzado Nov 11, 2022 desde Taiyuan Satellite Launch Center

Loading…

Próximos Pases (próximas 24 horas)

TLE

ActualizadoSource: Space-Track

Época: Sep 14, 2026, 06:04 UTC

1 54446U 22151FW  26257.25302512  .00001316  00000-0  10933-2 0  9995
2 54446  98.8323 180.4925 0205835 287.2975  70.5754 13.81117552192611

Sigue CZ-6A DEB en tiempo real con AllMySat

Download on the App Store